FENGYUN 1C DEB

Satellite information

Favourite Embed

Satellite Type and Status

DEBRISIN ORBIT

Key statistics

Satellite FENGYUN 1C DEB at a glance.

Uptime

9556

Days in orbit

Revolutions

≈ 14.2

Per day

Orbit

SSO

Sun Synchronous Orbit

Inclination

98.7

Latest

Satellite identification and parameters

Extended collection of information and parameters for FENGYUN 1C DEB.

Object identification

Identified? True

Debris? True

Object name: FENGYUN 1C DEB

International designator: 1999-025CLH

Object number (NORAD): 31906

Object ID (CCSDS): 31906

Country: PEOPLES REPUBLIC OF CHINA (PRC)

Current information (Y/N): Y

RCS size: SMALL

Orbital parameters

Period: 101.186 minutes

Inclination: 98.6858 deg

SMA: 7192.95 km

Apoapsis: 854.609 km

Periapsis: 775.022 km

RAAN: 322.3688 deg

Eccentricy: 0.0055323

Argument of periapsis: 218.6792 deg

Mean anomaly: 196.9491 deg

Mean motion: 14.23122199 rev/day

Mean motion (dot): 0.00003173 rev/day2

B* drag term: 0.0014023 1/REarth

Two-line elements (TLE)

Creation date: July 6, 2025, 6:05 p.m.

Reference frame: TEME

Reference center: EARTH

Epoch: July 6, 2025, 8:05 a.m. UTC

TLE line 0: 0 FENGYUN 1C DEB

TLE line 1: 1 31906U 99025CLH 25187.33681919 .00003173 00000-0 14023-2 0 9993

TLE line 2: 2 31906 98.6858 322.3688 0055323 218.6792 196.9491 14.23122199928619

Live tracking on map

Real-time ground track for satellite FENGYUN 1C DEB.

In-orbit conjunctions

A list of the most updated potential collisions computed for object FENGYUN 1C DEB.

Target Orbit TCA Probability of collision Miss distance Type
CZ-4B R/B SSO 2024-11-12 20:12:49 0.0001329568 542.0 (m) ROCKET BODY
METEOR 1-22 DEB LEO 2024-11-10 03:55:13 0.0001036785 314.0 (m) DEBRIS

Associated space launch

Chinese polar orbiting meteorological satellite

FENGYUN 1C DEB was lifted into orbit during the mission ‘Long March 4B | Feng Yun 1C’, on board a Long March 4B space rocket.

The launch took place on May 10, 1999, 1:33 a.m. from Launch Complex 7.

For more information about the launch, click the button.

Launch to space Long March 4B | Feng Yun 1C
Long March 4B | Feng Yun 1C

Agency: N/A

Status: Launch Successful

Launch date: May 10, 1999, 1:33 a.m. UTC

Rocket: Long March 4B

Launch pad: Launch Complex 7

Location: Taiyuan Satellite Launch Center, People's Republic of China

...

Latest news about this satellite

There are no fresh news available about this satellite. Check back as we update our databases every day.


Newsletter sign-up

Weekly statistics, charts and insights to help you stay on top of the space industry.